Astoria, OR

10:52 PM PDT on April 23, 2018 (GMT -0700)
Astoria Regional

Weather History for KAST - January, 2014

Change the Weather History Date:

Saturday, January 18, 2014

  Actual Average Record
Temperature  
Mean Temperature 42 °F 44 °F  
Max Temperature 49 °F 50 °F 61 °F (2009)
Min Temperature 35 °F 38 °F 11 °F (1943)
Degree Days  
Heating Degree Days 23 21  
Month to date heating degree days 353 387  
Since 1 July heating degree days 2541 2493  
Cooling Degree Days 0 0  
Month to date cooling degree days 0 0  
Year to date cooling degree days 0 0  
Moisture  
Dew Point 38 °F    
Average Humidity 88    
Maximum Humidity 100    
Minimum Humidity 76    
Precipitation  
Precipitation 0.00 in 0.34 in 2.87 in (1919)
Month to date precipitation 4.15 6.22  
Year to date precipitation 4.15 6.22  
Sea Level Pressure  
Sea Level Pressure 30.22 in    
Wind  
Wind Speed 4 mph (East)    
Max Wind Speed 9 mph    
Max Gust Speed 12 mph    
Visibility 8 miles    
Events      
T = Trace of Precipitation, MM = Missing Value Source: NWS Daily Summary

Daily Weather History Graph

Daily Weather History Graph

Search for Another Location

Airport or City:

Astronomy

Jan. 18, 2014 Rise Set
Actual Time 7:51 AM PST 5:00 PM PST
Civil Twilight 7:18 AM PST 5:33 PM PST
Nautical Twilight 6:41 AM PST 6:10 PM PST
Astronomical Twilight 6:05 AM PST 6:46 PM PST
Moon 7:59 PM PST (1/18) 8:44 AM PST (1/18)
Length of Visible Light 10h 15m
Length of Day
9h 08m
Waning Gibbous, 94% of the Moon is Illuminated
Jan 18
Waning Gibbous
Jan 23
Last Quarter
Jan 30
New
Feb 6
First Quarter
Feb 14
Full

Hourly Weather History & Observations

Time (PST) Temp. Windchill Dew Point Humidity Pressure Visibility Wind Dir Wind Speed Gust Speed Precip Events Conditions
12:55 AM 36.0 °F 31.1 °F 32.0 °F 86% 30.20 in 10.0 mi SSE 5.8 mph - N/A   Clear
1:22 AM 35.1 °F - 33.1 °F 92% 30.20 in 10.0 mi Calm Calm - N/A   Scattered Clouds
1:30 AM 37.0 °F - 33.1 °F 86% 30.21 in 10.0 mi Calm Calm - N/A   Mostly Cloudy
1:55 AM 44.1 °F 41.5 °F 39.0 °F 82% 30.21 in 10.0 mi SW 4.6 mph - N/A   Overcast
2:04 AM 39.9 °F 37.8 °F 37.0 °F 89% 30.20 in 10.0 mi ESE 3.5 mph - N/A   Overcast
2:55 AM 41.0 °F 37.1 °F 37.0 °F 86% 30.20 in 10.0 mi East 5.8 mph - N/A   Mostly Cloudy
3:03 AM 39.9 °F 35.1 °F 37.0 °F 89% 30.20 in 10.0 mi East 6.9 mph - N/A   Scattered Clouds
3:28 AM 39.0 °F 34.0 °F 37.0 °F 93% 30.19 in 8.0 mi East 6.9 mph - N/A   Partly Cloudy
3:52 AM 39.2 °F - 37.4 °F 93% 30.20 in 9.0 mi Calm Calm - N/A   Mostly Cloudy
3:55 AM 37.9 °F - 37.0 °F 97% 30.20 in 8.0 mi Calm Calm - N/A   Mostly Cloudy
4:23 AM 37.0 °F - 35.1 °F 93% 30.20 in 7.0 mi Calm Calm - N/A   Scattered Clouds
4:55 AM 37.9 °F 33.5 °F 36.0 °F 93% 30.23 in 2.0 mi WSW 5.8 mph - N/A   Mostly Cloudy
5:01 AM 39.0 °F 35.7 °F 37.0 °F 93% 30.23 in 1.2 mi WSW 4.6 mph - N/A   Mostly Cloudy
5:09 AM 37.9 °F - 37.0 °F 97% 30.23 in 0.8 mi Calm Calm - N/A   Mostly Cloudy
5:16 AM 39.0 °F - 37.9 °F 96% 30.24 in 1.0 mi Calm Calm - N/A   Overcast
5:32 AM 39.0 °F 36.8 °F 37.0 °F 93% 30.23 in 2.0 mi East 3.5 mph - N/A   Overcast
5:40 AM 39.0 °F 36.8 °F 37.0 °F 93% 30.23 in 5.0 mi East 3.5 mph - N/A   Overcast
5:55 AM 39.9 °F 35.8 °F 37.9 °F 93% 30.22 in 6.0 mi SE 5.8 mph - N/A   Overcast
6:38 AM 39.9 °F 35.8 °F 37.9 °F 93% 30.23 in 6.0 mi SE 5.8 mph - N/A   Overcast
6:50 AM 39.2 °F 35.9 °F 37.4 °F 93% 30.23 in 8.0 mi ESE 4.6 mph - N/A   Overcast
6:55 AM 41.0 °F 38.0 °F 37.9 °F 89% 30.23 in 8.0 mi ESE 4.6 mph - N/A   Overcast
7:12 AM 41.0 °F 39.0 °F 37.9 °F 89% 30.24 in 8.0 mi ESE 3.5 mph - N/A   Overcast
7:55 AM 39.9 °F 36.7 °F 37.0 °F 89% 30.25 in 7.0 mi ENE 4.6 mph - N/A   Overcast
8:55 AM 41.0 °F 37.1 °F 37.9 °F 89% 30.25 in 9.0 mi ESE 5.8 mph - N/A   Overcast
9:55 AM 43.0 °F - 39.0 °F 86% 30.27 in 10.0 mi Calm Calm - N/A   Overcast
10:29 AM 43.0 °F 39.5 °F 37.9 °F 82% 30.27 in 7.0 mi NE 5.8 mph - N/A   Overcast
10:55 AM 45.0 °F 41.2 °F 39.0 °F 80% 30.26 in 9.0 mi ENE 6.9 mph - N/A   Overcast
11:55 AM 45.0 °F 41.8 °F 39.0 °F 80% 30.27 in 8.0 mi NNW 5.8 mph - N/A   Overcast
12:30 PM 46.0 °F - 39.0 °F 76% 30.26 in 9.0 mi Calm Calm - N/A   Overcast
12:55 PM 46.9 °F - 39.0 °F 74% 30.26 in 10.0 mi NW 4.6 mph - N/A   Overcast
1:25 PM 48.0 °F - 39.9 °F 74% 30.25 in 10.0 mi Calm Calm - N/A   Overcast
1:55 PM 46.9 °F - 39.9 °F 77% 30.25 in 10.0 mi East 3.5 mph - N/A   Overcast
2:11 PM 48.0 °F - 41.0 °F 77% 30.24 in 10.0 mi East 4.6 mph - N/A   Overcast
2:55 PM 48.0 °F - 41.0 °F 77% 30.24 in 10.0 mi Calm Calm - N/A   Overcast
3:25 PM 48.9 °F - 41.0 °F 74% 30.23 in 10.0 mi Calm Calm - N/A   Overcast
3:36 PM 48.0 °F - 41.0 °F 77% 30.23 in 10.0 mi Calm Calm - N/A   Overcast
3:55 PM 48.0 °F - 41.0 °F 77% 30.22 in 10.0 mi ENE 3.5 mph - N/A   Overcast
4:55 PM 46.0 °F - 39.9 °F 79% 30.19 in 10.0 mi Calm Calm - N/A   Clear
5:55 PM 43.0 °F 41.3 °F 39.0 °F 86% 30.18 in 10.0 mi NNW 3.5 mph - N/A   Clear
6:55 PM 44.1 °F 41.5 °F 39.9 °F 85% 30.19 in 10.0 mi North 4.6 mph - N/A   Overcast
7:55 PM 44.1 °F 40.8 °F 39.9 °F 85% 30.18 in 10.0 mi North 5.8 mph - N/A   Mostly Cloudy
8:55 PM 42.1 °F 38.4 °F 39.0 °F 89% 30.16 in 10.0 mi East 5.8 mph - N/A   Clear
9:55 PM 42.1 °F 39.2 °F 37.9 °F 85% 30.15 in 10.0 mi East 4.6 mph - N/A   Clear
10:55 PM 39.9 °F 36.7 °F 37.0 °F 89% 30.15 in 10.0 mi NE 4.6 mph - N/A   Clear
11:55 PM 41.0 °F 37.1 °F 37.9 °F 89% 30.14 in 10.0 mi NNE 5.8 mph - N/A   Clear